STARLINK-3526

Satellite information

Favourite Embed

Satellite Type and Status

PAYLOADIN ORBIT

Key statistics

Satellite STARLINK-3526 at a glance.

Uptime

1306

Days in orbit

Revolutions

≈ 15.1

Per day

Orbit

LEO

Low Earth Orbit

Inclination

53.2

Latest

Satellite identification and parameters

Extended collection of information and parameters for STARLINK-3526.

Object identification

Identified? True

Debris? False

Object name: STARLINK-3526

International designator: 2022-016G

Object number (NORAD): 51720

Object ID (CCSDS): 51720

Country: UNITED STATES OF AMERICA (US)

Current information (Y/N): Y

RCS size: LARGE

Orbital parameters

Period: 95.438 minutes

Inclination: 53.2175 deg

SMA: 6917.902 km

Apoapsis: 540.486 km

Periapsis: 539.048 km

RAAN: 25.9723 deg

Eccentricy: 0.00010398

Argument of periapsis: 78.4533 deg

Mean anomaly: 281.6576 deg

Mean motion: 15.08832934 rev/day

Mean motion (dot): -0.00001622 rev/day2

B* drag term: -0.00008389127 1/REarth

Two-line elements (TLE)

Creation date: Sept. 18, 2025, 3:57 a.m.

Reference frame: TEME

Reference center: EARTH

Epoch: Sept. 17, 2025, 3:11 p.m. UTC

TLE line 0: 0 STARLINK-3526

TLE line 1: 1 51720U 22016G 25260.63309273 -.00001622 00000-0 -83891-4 0 9990

TLE line 2: 2 51720 53.2175 25.9723 0001040 78.4533 281.6576 15.08832934197299

Live tracking on map

Real-time ground track for satellite STARLINK-3526.

In-orbit conjunctions

There are no conjunctions computed for STARLINK-3526, at the moment. Check back to stay up to date, as we update our databases every day.

Go to all conjunctions

Associated space launch

A batch of 46 satellites for Starlink mega-constellation - SpaceX's project for space-based Internet communication system.

STARLINK-3526 was lifted into orbit during the mission ‘Falcon 9 Block 5 | Starlink Group 4-8’, on board a Falcon 9 space rocket.

The launch took place on Feb. 21, 2022, 2:44 p.m. from Space Launch Complex 40.

For more information about the launch, click the button.

Launch to space Falcon 9 Block 5 | Starlink Group 4-8
Falcon 9 Block 5 | Starlink Group 4-8

Agency: N/A

Status: Launch Successful

Launch date: Feb. 21, 2022, 2:44 p.m. UTC

Rocket: Falcon 9

Launch pad: Space Launch Complex 40

Location: Cape Canaveral SFS, FL, USA

...

Latest news about this satellite

News about space launch
SpaceX adds 46 more satellites to Starlink fleet

SpaceX launched a Falcon 9 rocket Monday from Cape Canaveral with 46 more satellites for the company’s Starlink broadband network, deploying the internet relay payloads in a higher orbit than recent flights after atmospheric drag brought down more nearly ...

News about space launch
SpaceX Falcon 9 booster aces eleventh launch and landing for the second time

For the second time, a SpaceX Falcon 9 booster has completed its eleventh launch, spaceflight, and landing – helping deliver dozens of...

News about space launch
SpaceX launches Starlink satellites to higher orbit

SpaceX launched a set of Starlink satellites Feb. 21 after more than three-fourths of the satellites from the previous launch were lost because of a solar storm.


Newsletter sign-up

Weekly statistics, charts and insights to help you stay on top of the space industry.